This is the latest recevied weather packets stored in our database for station/object JR4VEV-13. If no packets are shown the sender has not sent any weather packets the latest 10 day(s).
| Time | Temp. | Humidity | Pressure | Rain* | Wind** | Luminosity | Snow |
|---|---|---|---|---|---|---|---|
| 1777004306 | 20.56° C | 34% | 1013.4 hPa | 0 mm | - | - | - |
| 1777003706 | 20.56° C | 34% | 1013.2 hPa | 0 mm | - | - | - |
| 1777003105 | 20.56° C | 34% | 1013.2 hPa | 0 mm | - | - | - |
| 1777002505 | 20.56° C | 33% | 1013.1 hPa | 0 mm | - | - | - |
| 1777001906 | 20.56° C | 35% | 1013.3 hPa | 0 mm | - | - | - |
| 1777001305 | 20.56° C | 34% | 1013.4 hPa | 0 mm | - | - | - |
| 1777000706 | 20.56° C | 33% | 1012.8 hPa | 0 mm | - | - | - |
| 1777000106 | 20.56° C | 38% | 1012.9 hPa | 0 mm | - | - | - |
| 1776999506 | 20.56° C | 45% | 1012.9 hPa | 0 mm | - | - | - |
| 1776998906 | 20.56° C | 43% | 1013.1 hPa | 0 mm | - | - | - |
| 1776998306 | 20° C | 47% | 1013 hPa | 0 mm | - | - | - |
| 1776997705 | 19.44° C | 49% | 1013.3 hPa | 0 mm | - | - | - |
| 1776997105 | 19.44° C | 50% | 1013.3 hPa | 0 mm | - | - | - |
| 1776996505 | 18.89° C | 52% | 1013.3 hPa | 0 mm | - | - | - |
| 1776995906 | 18.33° C | 53% | 1013.4 hPa | 0 mm | - | - | - |
| 1776995306 | 18.33° C | 52% | 1013.3 hPa | 0 mm | - | - | - |
| 1776994706 | 18.33° C | 51% | 1013.4 hPa | 0 mm | - | - | - |
| 1776994107 | 18.33° C | 50% | 1013.4 hPa | 0 mm | - | - | - |
| 1776993506 | 18.33° C | 55% | 1013.4 hPa | 0 mm | - | - | - |
| 1776992906 | 18.33° C | 59% | 1013.4 hPa | 0 mm | - | - | - |
| 1776992305 | 17.22° C | 64% | 1013.4 hPa | 0 mm | - | - | - |
| 1776991705 | 16.67° C | 66% | 1013.4 hPa | 0 mm | - | - | - |
| 1776991106 | 16.67° C | 66% | 1013.3 hPa | 0 mm | - | - | - |
| 1776990505 | 16.11° C | 68% | 1013.7 hPa | 0 mm | - | - | - |
| 1776989906 | 15.56° C | 70% | 1013.6 hPa | 0 mm | - | - | - |
* Rain latest hour (hover to see other rain measurements)
** Current wind speed in m/s (hover to see current wind gust speed)